Orbital Elements at Epoch 2456961.5 (2014-Oct-31.0) TDB
Reference: JPL K184/8 (heliocentric ecliptic J2000)
Element | Value | Uncertainty (1-sigma) | Units |
e | .7865681713017859 | 1.2927e-07 | |
a | 6.022772962563499 | 1.1607e-07 | au |
q | 1.285451447234088 | 7.8357e-07 | au |
i | 18.6689713312349 | 1.665e-05 | deg |
node | 21.99985095509755 | 3.0737e-05 | deg |
peri | 257.342734110419 | 4.9163e-05 | deg |
M | 273.4820324828293 | 4.8278e-06 | deg |
tp | 2458258.968947685299 (2018-May-20.46894769) | 5.1606e-05 | TDB |
period | 5398.749353121446 14.78 | 0.00015606 4.273e-07 | d yr |
n | .0666821103283588 | 1.9276e-09 | deg/d |
Q | 10.76009447789291 | 2.0736e-07 | au |
|
Additional Model Parameters
Parameter | Value | Uncertainty (1-sigma) |
A1 [EST] | 7.681995007508509E-10 | 1.67E-10 |
A2 [EST] | -8.894690955671997E-11 | 6.203E-13 |
|
| | Orbit Determination Parameters
Additional Information
|